Location: Sternwarte ZA, Rosenfeld-Brittheim
(48.2889°N, 8.6789°E)
Time: 07:46:45
(UTC+02:00)

Envisat - Visible Passes

Search period start: 22 May 2018 00:00
Search period end: 01 June 2018 00:00
Orbit: 764 x 766 km, 98.2° (Epoch: 21 May)

Date Brightness Start Highest point End Pass type
(mag) Time Alt. Az. Time Alt. Az. Time Alt. Az.
22 May 5.5 21:59:04 10° SW 22:02:32 18° W 22:06:01 10° NW visible
24 May 6.0 22:27:27 10° W 22:28:29 11° W 22:29:31 10° WNW visible
25 May 5.4 21:47:18 10° SW 21:51:15 22° W 21:55:13 10° NW visible
27 May 5.7 22:14:41 10° WSW 22:17:09 13° W 22:19:37 10° WNW visible
30 May 5.6 22:02:37 10° SW 22:05:51 17° W 22:09:05 10° NW visible
